Wind_Speed
72 70 68 69 72 76 76 75 71 67 65 64 65 64 63 61 59 57 56 54 52 48 43 37 34 38 41 39 37 34 34 33 29 26 25 23 22 22 17 12 10 9 9 7 4 2 3 6 10 10 9 11 12 14 16 17 17 17 18 19 18 17 16 15 14 15 17 18 19 19 18 18 18 17 16 17 19 21 23 24 25 26 26 27 28 28
73 71 71 72 74 76 78 77 72 68 66 65 65 65 64 63 62 60 59 57 55 51 47 42 35 35 39 39 38 36 34 32 30 28 28 26 24 24 20 15 12 12 13 10 7 4 2 3 8 8 7 9 11 14 15 15 16 16 17 18 18 17 16 14 14 14 14 16 17 17 17 17 17 16 15 15 16 18 20 22 24 25 25 26 26 26
74 74 75 76 75 75 78 78 74 70 68 66 66 66 66 65 64 63 61 60 58 54 51 48 42 37 37 38 37 37 36 34 33 31 30 30 27 24 21 17 13 15 16 14 11 7 3 2 4 6 6 7 10 14 15 15 15 15 15 16 17 17 15 14 13 13 13 14 15 16 16 15 15 15 15 14 14 16 18 19 21 22 24 24 24 24
78 78 79 79 77 76 77 78 77 73 70 68 67 67 68 68 66 64 63 62 60 57 54 53 49 42 37 38 38 37 37 36 36 34 32 32 29 25 22 18 16 17 18 17 14 8 5 3 2 4 4 6 10 14 16 15 14 13 14 15 16 16 15 14 14 13 13 13 13 14 15 14 14 14 15 14 14 14 15 17 19 20 21 22 23 23
81 83 82 80 78 78 77 78 77 76 74 72 69 69 69 70 69 66 64 63 61 59 57 55 53 48 41 40 39 40 38 35 35 35 35 33 30 28 25 21 18 18 19 19 17 11 7 5 4 5 3 4 10 16 16 15 14 13 13 14 15 16 15 14 14 14 14 13 12 12 13 13 13 14 14 14 13 13 13 15 16 18 19 20 21 21
84 85 83 80 79 79 79 78 76 77 77 76 73 72 72 71 70 68 67 66 64 61 58 56 55 52 48 44 41 42 39 34 34 34 34 34 31 29 28 24 21 20 19 20 19 15 11 8 7 7 8 7 10 16 16 13 12 12 12 12 13 14 14 13 13 14 14 14 12 11 11 12 12 13 13 13 13 13 12 13 14 15 17 18 19 20
86 86 84 82 81 81 81 79 77 76 77 78 78 76 75 73 71 71 70 69 68 65 61 59 56 53 53 50 45 44 42 37 35 34 33 35 35 32 30 26 24 23 21 20 21 19 14 11 10 10 11 11 12 15 14 11 11 11 12 11 11 12 13 12 12 12 13 13 12 10 10 10 11 11 12 12 12 12 12 11 12 13 14 16 17 18
86 86 85 84 83 82 82 81 79 76 76 78 81 80 77 74 73 73 73 72 71 67 63 63 61 55 54 55 50 47 45 40 38 38 37 37 37 35 32 28 27 27 24 21 21 20 17 14 12 12 12 11 10 11 10 9 9 11 12 10 9 11 12 12 12 12 12 13 12 11 9 9 9 10 11 11 11 12 11 11 10 11 12 13 14 15
86 86 87 86 85 84 83 84 82 79 77 79 83 82 80 77 75 75 75 73 73 70 66 65 66 61 57 57 55 51 49 47 43 42 41 39 38 36 33 31 30 30 29 25 22 20 19 16 14 14 13 10 8 8 7 7 9 10 12 10 9 10 11 12 12 11 12 12 12 12 10 9 9 9 10 11 11 11 11 11 9 9 10 11 12 13
85 86 87 87 85 85 86 87 85 82 82 83 82 81 81 80 78 77 76 74 73 72 71 68 67 66 62 60 59 55 52 51 49 46 43 41 39 36 35 35 34 33 32 29 24 22 20 18 16 15 13 10 8 7 6 8 9 9 10 10 11 12 13 12 12 11 12 12 12 12 12 11 10 9 10 11 11 11 11 10 9 8 8 9 10 11
85 86 87 86 85 86 88 88 87 85 86 85 82 80 81 82 82 80 77 75 74 72 73 72 70 68 65 63 62 60 56 53 51 49 46 44 40 37 36 37 36 35 34 32 27 24 22 20 18 16 14 12 11 10 8 9 9 9 8 9 12 15 15 15 14 13 12 12 12 12 12 12 11 10 10 11 12 11 11 11 10 8 7 7 8 9
87 86 86 86 87 88 88 89 88 88 88 85 83 81 80 81 83 82 78 75 75 74 74 74 72 70 67 65 63 62 60 57 53 51 48 46 43 39 38 38 38 36 35 35 30 25 25 23 20 17 15 13 14 14 12 10 11 9 8 9 12 15 17 17 17 16 14 13 12 12 11 11 11 11 10 10 11 11 11 11 10 10 9 7 7 7
89 87 85 86 87 88 89 89 89 89 87 85 84 82 80 80 82 82 79 76 76 77 76 75 74 72 70 67 64 63 62 60 57 54 51 49 46 43 40 40 40 36 35 36 32 27 26 24 21 19 17 16 16 17 15 13 12 9 7 9 13 15 17 18 18 17 16 15 14 12 10 10 11 11 10 10 10 11 11 11 11 11 10 9 8 7
90 88 87 87 88 88 89 89 89 89 88 86 85 84 80 79 80 81 81 80 79 79 78 76 75 74 73 70 66 64 63 62 60 58 55 53 50 48 45 42 41 38 37 37 32 27 25 22 20 19 17 18 18 18 16 14 13 11 10 11 13 14 16 17 16 16 17 16 15 13 10 9 10 11 11 10 10 10 11 11 11 11 11 11 10 9
90 90 89 88 87 87 88 89 90 91 90 89 88 86 82 79 79 80 81 82 82 82 80 78 76 75 75 73 69 67 65 63 63 61 59 56 54 52 49 46 44 42 40 38 33 28 25 23 21 19 17 18 19 18 17 15 14 14 14 13 14 14 14 15 14 14 16 17 16 14 11 8 8 10 11 11 11 11 11 11 11 11 11 11 11 11
90 90 90 88 87 87 88 90 91 92 92 91 90 88 84 81 81 81 82 83 84 85 82 79 77 77 77 76 73 69 67 66 64 63 61 59 56 54 53 50 48 47 44 42 38 33 29 27 26 24 21 20 20 19 20 20 17 16 16 15 14 13 13 14 14 13 14 16 15 13 11 8 7 8 10 11 11 11 11 11 11 11 11 11 11 11
90 89 89 90 89 88 89 89 90 92 93 92 91 89 86 84 83 84 84 84 85 85 83 80 79 79 78 77 74 72 70 68 65 64 63 61 59 57 56 54 52 51 48 46 44 40 37 35 33 31 28 26 24 24 26 26 22 19 18 17 15 14 14 14 15 15 14 16 15 12 10 8 6 7 9 10 11 11 12 12 11 11 12 12 11 11
92 90 90 91 91 90 88 88 88 91 93 92 92 91 89 87 86 86 87 86 84 83 83 82 81 80 79 78 76 74 73 71 68 66 64 62 61 60 58 57 55 54 52 49 46 44 43 41 39 37 36 34 32 31 31 29 25 21 19 19 17 14 14 15 17 17 15 15 16 13 9 6 4 4 7 9 10 11 12 12 12 12 12 12 12 12
94 93 91 91 92 91 90 88 88 90 91 92 92 92 91 89 88 89 89 87 84 81 81 82 82 82 81 79 78 76 74 73 71 69 66 64 63 61 60 59 58 57 55 52 47 45 43 43 42 41 39 39 38 35 33 31 28 24 21 21 18 14 13 15 17 18 16 14 15 14 10 6 3 2 4 6 7 9 11 12 13 12 13 13 13 13
96 95 93 92 91 92 92 91 90 89 90 91 92 92 91 90 90 91 91 89 85 82 81 81 81 82 82 81 79 77 76 74 73 71 70 68 66 64 62 60 59 58 56 53 50 48 47 45 44 42 42 42 41 37 35 32 30 27 23 21 18 14 14 16 18 20 17 13 12 13 12 9 4 1 2 2 4 7 9 10 12 12 13 13 13 14
96 95 94 93 92 92 93 93 92 90 91 91 91 92 92 92 92 92 92 90 86 83 83 82 80 80 82 82 81 79 77 76 74 73 72 70 68 65 63 61 59 58 57 56 54 52 51 48 43 42 43 43 40 37 35 32 30 28 23 19 18 15 15 19 21 20 17 14 12 13 12 9 4 2 1 1 2 5 7 9 11 12 13 14 14 15
95 95 94 93 93 92 93 94 93 92 92 92 91 92 93 94 94 94 93 92 87 85 84 83 81 80 81 82 83 82 80 77 76 75 73 71 68 65 63 61 60 59 58 56 55 53 52 50 46 44 44 42 39 37 36 34 32 30 25 20 21 19 17 21 22 19 17 15 13 14 13 9 6 6 5 6 6 6 7 8 10 12 14 15 15 15
95 95 95 94 93 93 93 93 93 94 95 95 94 94 94 95 94 94 94 92 88 86 85 85 82 80 79 80 82 83 82 79 77 76 74 72 69 65 63 59 56 57 58 57 55 54 54 54 53 50 47 42 39 40 41 39 34 31 27 24 25 23 20 22 23 21 20 18 17 16 15 13 11 11 11 11 11 10 10 10 11 13 15 16 16 16
93 94 95 95 94 94 94 93 94 96 97 97 97 96 95 94 93 92 92 91 89 88 87 86 84 81 79 79 80 81 81 80 79 78 76 74 71 68 65 58 49 47 53 58 58 55 54 56 58 55 50 47 44 44 43 40 34 32 30 28 27 25 22 23 25 24 22 21 20 19 17 18 18 16 14 14 14 13 13 13 13 14 15 16 17 17
91 93 94 95 95 96 96 95 96 97 99 99 99 97 95 94 93 92 91 90 90 89 88 87 85 82 81 80 79 78 79 80 80 79 78 76 74 71 67 62 53 45 47 54 58 55 51 52 57 57 53 51 50 48 45 41 36 34 32 30 29 27 24 25 26 26 24 21 20 20 20 22 23 19 16 14 15 15 15 15 15 14 14 15 17 18
90 92 93 94 96 97 97 98 98 99 100 100 100 98 96 95 94 92 91 90 90 89 88 87 86 84 83 82 80 79 79 80 79 79 78 77 76 73 69 66 59 52 50 52 56 59 57 54 56 57 55 55 54 50 47 45 41 38 36 34 31 29 27 26 27 27 25 23 20 20 22 25 24 20 16 15 17 18 18 17 17 16 16 16 17 17
90 91 93 94 96 97 98 98 98 99 99 99 99 98 98 97 95 93 92 91 90 89 88 88 88 86 85 83 82 82 82 80 78 78 78 77 77 74 70 68 61 55 56 56 56 60 63 61 56 51 50 54 57 54 50 49 45 40 39 38 35 33 32 30 29 27 26 25 24 23 24 25 24 20 16 16 19 20 20 19 19 20 20 20 19 18
88 90 92 94 95 97 98 98 98 98 98 98 98 97 98 98 97 95 93 92 90 90 89 89 88 87 87 86 84 84 84 82 80 79 78 77 77 75 72 70 66 60 60 63 62 61 64 67 64 57 51 49 51 52 48 46 44 39 38 39 36 33 32 30 28 27 27 28 27 26 27 26 24 24 23 20 20 22 23 21 20 22 24 24 23 21
86 88 91 93 93 96 98 98 98 98 98 97 97 97 98 99 98 96 95 93 92 90 90 90 89 88 88 88 87 86 85 84 82 81 80 78 77 77 75 74 73 68 64 67 69 67 66 69 70 68 63 55 51 50 47 46 46 43 40 37 33 31 30 29 28 27 28 30 26 25 28 28 26 27 27 25 23 24 25 24 24 25 27 27 25 23
84 87 89 91 92 95 97 97 97 98 98 97 97 97 98 99 98 97 97 95 93 92 91 90 89 89 88 88 88 87 86 85 84 83 82 80 78 79 79 79 78 76 71 69 71 71 70 71 71 72 71 67 61 57 55 53 50 48 45 38 33 32 31 31 30 27 28 31 29 28 31 31 28 26 26 26 26 26 26 27 28 28 29 30 29 26
83 85 87 89 90 92 95 96 96 96 97 98 97 97 98 99 98 98 98 97 95 93 91 90 89 89 88 87 87 87 86 86 86 85 84 83 82 82 83 82 80 80 79 74 71 71 71 71 72 73 73 73 69 64 61 57 50 47 46 41 37 36 35 34 33 30 31 34 33 32 33 31 28 27 27 27 27 27 27 28 29 29 29 31 32 31
82 84 86 88 88 89 92 95 96 96 96 97 97 97 98 99 99 98 98 97 96 95 93 91 89 88 88 87 87 88 88 88 88 87 86 85 84 85 86 85 82 80 81 78 72 69 70 70 71 72 74 74 71 66 63 59 52 48 47 44 41 40 38 36 36 36 37 37 37 37 37 33 30 30 30 29 29 28 26 27 29 30 30 32 33 34
80 82 85 86 86 87 89 91 94 95 95 96 97 98 98 99 100 99 98 97 97 97 95 93 91 90 89 88 88 89 90 91 90 89 87 86 86 86 87 87 85 82 82 82 76 70 69 69 68 69 72 75 74 70 66 64 60 56 55 53 48 45 43 41 40 41 42 41 40 40 39 37 34 32 31 31 31 29 29 30 31 32 33 34 35 36
78 80 83 84 85 86 86 88 93 96 96 97 98 97 97 99 100 100 99 98 98 98 98 96 94 92 90 89 89 90 92 93 92 90 89 88 88 88 88 88 87 85 83 85 84 79 74 71 69 67 68 72 75 74 71 68 66 66 67 64 56 49 47 45 43 44 44 42 39 37 36 38 38 36 35 36 35 31 30 32 34 35 36 37 38 38
78 79 80 82 83 85 86 88 92 95 95 95 96 95 95 97 100 100 100 99 98 97 98 98 97 95 93 91 91 92 93 93 93 92 92 91 90 89 89 88 88 88 86 86 87 87 84 81 77 74 71 71 73 76 75 72 68 69 71 67 58 54 53 50 44 41 40 39 37 35 35 36 39 40 40 40 40 37 35 37 41 42 41 41 41 42
79 79 79 80 81 83 85 87 90 92 93 93 93 93 95 96 98 99 99 98 98 98 97 98 98 97 96 95 94 93 93 93 93 93 94 95 93 92 91 90 89 89 90 89 89 88 88 87 86 84 80 76 75 76 77 75 70 67 67 64 61 60 60 58 52 44 41 42 42 40 37 35 36 39 38 37 39 41 42 43 43 41 40 40 42 44
80 80 80 80 80 81 83 86 88 91 92 93 93 94 95 95 96 97 98 98 98 98 98 98 99 98 98 97 96 94 93 93 93 94 95 96 96 95 94 93 93 91 92 93 92 90 88 87 88 89 86 81 78 76 77 77 74 70 67 65 66 66 65 64 62 56 51 52 51 47 44 43 42 40 36 33 35 39 44 47 45 42 40 39 40 42
79 81 82 82 80 80 81 83 86 88 91 93 94 95 95 95 95 97 98 98 97 97 97 98 97 98 99 99 99 97 95 94 94 95 97 97 98 98 98 97 96 96 95 95 94 93 91 88 86 87 86 83 79 77 76 77 77 75 72 70 70 71 70 68 68 68 66 64 61 56 51 50 49 44 38 37 38 40 43 47 48 46 44 42 42 42
75 80 83 83 82 81 81 81 83 85 88 91 93 94 94 95 97 98 98 98 97 97 97 97 97 97 98 99 100 100 98 97 96 96 98 100 100 100 100 100 100 99 99 99 98 97 96 94 90 87 86 85 82 79 77 77 77 77 77 75 75 76 77 74 72 74 74 72 67 61 56 54 53 49 46 47 48 47 45 45 46 46 46 46 46 43
66 74 80 84 84 83 82 81 82 84 86 88 90 91 92 94 97 98 97 98 98 98 98 98 97 97 98 98 98 99 100 99 99 99 100 100 102 103 103 103 103 103 103 102 102 101 100 99 96 92 90 87 85 82 80 78 77 76 77 77 77 80 83 82 79 77 77 75 71 66 61 58 56 54 54 55 56 55 53 51 50 50 49 50 50 48
58 65 74 81 85 86 85 84 83 84 85 86 88 89 90 92 94 96 97 98 98 97 98 98 98 98 97 94 92 94 98 100 99 100 101 101 102 103 105 105 106 107 107 107 106 105 103 102 101 98 95 92 88 84 82 80 78 77 77 77 78 81 85 87 85 82 80 79 77 73 69 66 64 63 63 64 64 64 63 61 59 56 53 52 53 52
51 57 64 72 80 86 88 87 86 86 86 87 88 88 88 89 91 93 95 96 96 96 97 97 98 98 96 92 86 85 91 97 98 100 103 104 104 105 106 108 110 111 111 111 109 108 106 104 102 101 99 97 93 89 85 82 79 78 78 78 79 82 85 87 89 88 86 85 84 82 79 76 74 72 71 71 71 70 70 69 67 65 60 55 54 53
45 50 55 62 71 79 86 90 90 89 89 89 89 89 88 89 90 92 92 92 93 95 96 97 98 98 97 97 94 88 89 94 98 101 104 105 107 110 111 112 114 115 114 114 112 110 108 106 104 102 101 100 98 95 92 88 84 82 81 81 82 84 86 88 90 92 93 92 91 89 87 85 82 79 76 75 73 73 73 72 72 71 68 62 59 59
40 44 49 55 61 69 78 86 91 93 92 91 91 90 89 89 90 90 90 91 92 93 95 96 98 98 98 100 102 99 95 93 96 101 105 107 108 112 114 116 118 118 117 115 113 111 109 108 106 105 103 102 101 100 99 97 94 91 88 87 86 87 89 90 92 93 94 94 93 92 90 88 86 84 82 80 78 77 77 76 75 74 72 68 66 67
36 40 45 49 54 60 67 76 85 92 95 96 95 94 92 91 90 90 90 90 91 93 94 95 96 97 98 99 101 103 103 99 96 98 102 107 110 112 114 117 119 119 116 114 113 113 112 111 109 108 106 104 103 103 102 102 101 99 97 94 92 91 91 93 94 94 94 93 93 92 90 89 88 87 86 85 83 81 81 80 80 78 75 71 68 68
34 37 41 44 49 54 59 66 74 83 91 95 98 98 96 95 93 92 91 91 91 93 94 94 94 95 97 98 99 101 104 105 103 100 99 104 110 113 114 114 117 118 117 115 114 114 114 113 112 111 109 107 105 104 104 104 103 102 101 99 97 94 93 93 94 95 95 94 94 93 92 91 90 89 88 87 86 85 84 83 82 81 79 75 71 68
32 35 38 41 45 49 54 59 65 72 79 87 94 98 100 99 98 96 94 94 94 93 93 94 93 93 94 96 97 99 101 104 106 105 102 100 104 110 113 114 114 117 118 117 116 115 115 115 114 113 112 110 108 107 105 105 105 103 102 102 100 98 95 94 94 94 93 93 93 93 93 92 91 89 88 87 86 86 85 84 82 81 80 78 77 75
31 34 36 39 42 46 50 54 59 64 69 76 84 91 98 101 102 101 99 97 97 96 95 94 93 93 95 96 98 100 102 104 107 110 109 105 103 105 109 112 114 116 118 119 118 117 116 116 115 114 113 112 111 110 108 107 106 106 105 104 103 102 100 99 98 97 96 95 95 95 94 94 92 90 88 86 85 84 84 83 82 81 81 81 81 82
33 34 36 38 41 45 48 51 55 59 63 68 74 80 88 95 100 103 103 102 101 100 99 97 96 95 96 98 100 102 104 107 109 111 113 112 109 108 108 110 112 114 117 120 121 120 118 117 116 115 114 114 113 112 112 110 109 108 108 107 107 106 105 105 104 103 102 100 99 97 97 96 94 92 90 89 87 86 84 84 83 83 82 83 84 86
35 37 38 40 42 45 48 51 54 57 61 64 68 73 78 84 90 97 102 105 105 104 103 101 99 98 98 99 101 103 105 108 109 111 111 112 112 112 112 112 112 113 116 119 121 121 120 118 117 116 116 115 115 114 114 113 112 111 110 110 109 109 109 108 108 107 106 104 102 100 99 99 98 96 94 93 92 90 89 88 87 86 85 84 85 87
37 39 41 43 45 46 48 51 53 57 60 63 66 70 73 77 81 87 93 98 103 105 106 105 104 102 101 101 101 103 105 107 109 110 111 111 112 113 114 115 114 114 114 116 118 120 120 120 119 118 117 117 117 117 116 116 115 114 114 113 112 112 111 111 110 110 109 107 106 104 103 103 102 101 99 97 96 95 95 93 92 91 90 88 87 87
Wind_Direction
221 221 220 220 219 218 219 221 220 218 216 215 215 214 214 214 213 212 212 211 209 209 208 209 214 215 211 209 213 218 220 222 223 222 223 222 224 229 237 257 262 232 221 224 227 301 6 1 349 355 11 16 20 19 18 20 15 13 14 17 20 22 26 31 32 31 34 38 43 46 47 45 44 45 47 49 51 53 54 54 53 52 51 52 53 54
221 221 221 221 220 219 219 220 219 218 217 216 215 215 215 215 215 213 212 211 210 208 208 208 212 217 215 211 212 216 218 219 217 220 224 220 222 230 236 251 251 219 216 223 224 250 306 347 343 348 2 11 18 17 14 18 15 11 11 14 17 19 20 25 29 31 30 33 38 43 46 46 44 43 44 46 50 52 54 54 54 54 53 52 53 54
220 220 221 221 221 220 220 220 219 219 218 217 216 216 216 216 216 215 213 212 211 208 208 209 211 214 216 214 213 214 218 222 221 221 222 220 222 228 233 241 238 215 216 225 225 237 265 298 333 344 358 14 23 17 11 10 11 9 11 12 14 16 17 16 20 25 28 29 32 37 43 45 44 43 43 43 47 51 54 55 55 55 55 54 54 54
220 220 221 221 221 221 221 220 219 218 219 219 218 217 217 217 216 216 215 213 212 210 208 209 210 209 211 213 213 214 215 220 223 220 220 225 229 230 232 236 230 216 220 229 230 234 254 259 286 323 352 32 28 13 4 1 1 4 9 11 12 15 14 11 11 14 21 26 27 29 34 39 42 42 41 40 42 46 51 54 55 54 55 56 55 55
220 220 221 221 221 221 221 220 219 218 218 219 218 218 218 218 216 216 216 214 214 214 210 209 210 210 209 210 211 214 214 216 223 223 222 228 233 233 235 236 229 220 223 233 234 231 233 238 247 272 300 21 13 1 355 351 351 357 5 9 10 13 12 8 5 4 9 19 23 22 25 30 35 38 39 38 38 40 45 52 55 53 53 55 56 55
220 221 221 220 221 222 222 221 219 218 218 218 218 219 219 218 216 216 216 215 215 216 212 209 210 211 211 210 210 215 215 214 221 225 225 228 232 235 237 236 229 224 226 232 236 233 226 230 242 256 268 294 331 342 345 343 343 349 357 4 7 10 11 7 2 359 359 8 17 16 17 22 28 33 36 36 35 36 39 47 53 54 53 53 54 55
220 221 220 220 220 221 223 222 220 218 218 218 219 219 219 218 216 216 217 216 216 216 212 210 211 211 212 212 212 214 213 213 218 223 226 229 233 236 237 233 228 228 230 232 237 237 227 228 240 253 266 275 297 321 334 339 341 344 350 359 5 7 9 6 1 356 353 358 8 11 8 13 19 25 30 32 32 32 35 40 48 53 54 53 53 54
220 220 220 220 220 221 223 223 221 219 219 219 219 219 219 218 217 217 217 217 216 215 213 212 212 212 214 214 215 215 212 212 215 218 221 226 230 233 234 232 227 228 234 235 236 237 230 230 242 253 263 270 287 310 327 341 342 343 347 354 5 6 5 4 0 354 348 350 360 4 0 359 6 12 17 22 25 28 31 35 40 46 52 54 54 54
220 220 220 220 220 220 222 223 222 219 219 220 219 218 219 219 218 219 218 217 217 216 215 215 214 214 215 215 216 217 214 213 214 217 219 223 228 231 233 233 228 229 235 236 233 234 231 231 239 249 260 267 279 299 331 352 344 340 343 349 359 2 0 358 358 353 345 346 352 357 355 350 351 356 2 9 15 21 25 31 35 39 47 53 53 53
220 220 220 220 220 220 221 223 222 219 220 220 219 218 218 219 219 219 218 217 217 217 217 217 216 216 217 217 217 218 217 217 218 219 221 223 227 230 233 234 231 229 235 236 233 232 231 232 237 247 258 260 257 273 312 337 334 331 334 343 351 351 351 347 348 348 343 342 347 351 352 347 341 343 350 357 2 10 17 23 30 32 41 50 51 50
219 219 220 219 219 220 221 223 222 221 220 220 219 218 218 219 219 220 218 217 218 218 219 220 219 218 219 218 218 219 220 220 221 222 224 225 226 229 232 234 231 228 232 236 236 232 228 231 239 245 253 254 245 251 275 303 315 318 320 335 344 343 344 339 333 337 340 339 342 346 348 344 338 334 338 347 351 358 6 14 20 22 29 41 47 47
218 219 219 218 218 219 221 223 223 223 222 221 219 219 218 219 219 220 219 217 218 219 219 220 221 221 221 220 219 221 222 223 224 224 225 226 226 228 231 234 233 229 231 234 234 231 226 231 243 244 247 252 250 251 258 279 301 308 303 317 330 332 337 337 328 327 333 335 337 342 343 338 333 327 327 334 341 348 356 3 11 13 15 24 35 41
218 218 219 219 219 219 220 221 223 224 223 222 221 220 219 219 220 220 220 219 219 220 220 220 220 222 223 222 221 222 223 225 226 226 226 227 226 227 229 233 234 231 229 229 230 233 232 235 242 242 244 252 255 256 258 267 283 294 295 305 316 320 329 335 329 321 324 329 332 336 338 331 325 320 315 318 328 336 344 352 1 4 6 9 13 21
217 218 219 219 219 219 220 221 223 224 223 222 223 221 220 220 220 221 221 220 221 221 220 220 221 222 223 223 223 224 224 225 226 227 227 228 227 227 228 230 232 231 228 228 229 232 233 234 236 239 246 251 252 255 258 264 273 279 286 299 310 314 321 329 328 318 316 323 327 329 333 328 317 312 308 305 312 323 333 342 350 356 360 0 0 0
218 218 219 219 220 220 221 221 223 223 222 222 222 222 221 221 221 221 221 221 222 222 221 220 221 222 223 223 224 225 225 226 227 227 228 228 228 228 228 229 231 231 229 230 232 229 228 229 232 239 248 250 251 254 255 263 276 279 279 290 302 307 312 320 322 315 311 316 322 325 328 328 315 308 305 301 303 311 321 331 338 344 350 352 352 352
218 219 219 220 221 221 221 222 223 223 223 222 222 221 220 220 221 222 222 221 221 222 221 220 221 223 224 223 224 225 226 227 228 228 228 229 229 229 229 229 232 234 233 233 234 231 229 231 234 240 247 249 251 251 251 258 271 274 270 277 290 297 301 307 313 313 310 312 317 320 324 329 317 303 302 302 301 305 311 321 329 334 341 345 346 346
218 218 219 219 220 221 222 222 223 224 224 223 222 222 220 220 220 222 222 221 221 222 221 221 222 224 224 224 224 225 226 227 228 229 229 230 231 231 230 230 232 234 235 236 237 236 235 237 241 244 248 251 250 248 249 254 260 262 262 268 280 289 290 294 303 310 310 309 311 313 317 322 315 296 296 301 302 301 303 311 322 328 332 336 339 341
218 218 218 219 220 220 221 223 224 225 225 224 223 222 220 220 220 221 222 222 221 221 221 221 222 225 225 225 225 225 226 227 227 228 229 230 231 232 232 232 233 234 236 237 238 239 241 244 247 249 250 251 250 247 248 254 259 258 258 264 274 283 285 287 297 304 309 311 310 310 308 302 297 286 286 294 298 298 299 305 316 324 326 328 331 333
218 218 218 219 219 220 221 222 223 225 227 226 224 223 222 220 220 221 222 222 221 221 222 222 222 224 225 225 225 226 227 227 227 228 228 228 229 231 232 234 235 236 238 239 240 241 244 245 246 248 250 251 251 250 251 255 261 261 259 262 268 277 280 283 290 292 297 307 309 310 306 288 264 246 263 281 290 297 300 304 310 317 320 321 323 324
218 218 218 218 219 219 220 221 222 224 226 226 226 225 224 222 221 222 222 222 220 220 222 222 223 224 224 225 225 226 227 228 228 228 228 228 228 229 231 233 236 238 240 242 242 242 242 243 244 247 251 252 254 254 253 255 259 261 261 258 260 271 275 277 284 286 288 300 308 311 310 299 281 215 202 244 278 297 305 308 309 310 313 315 316 316
217 218 218 218 219 219 220 221 221 223 225 226 226 225 224 224 223 223 223 222 220 220 221 222 223 224 224 224 225 226 227 228 228 229 229 229 230 230 231 233 235 238 240 242 243 244 245 248 249 250 250 251 253 253 252 252 253 255 257 252 252 265 272 272 279 284 287 295 304 310 313 308 296 277 252 275 288 297 305 311 312 309 308 308 309 312
217 217 218 218 219 219 220 220 221 222 224 225 226 225 225 224 223 223 223 223 221 220 221 222 223 224 224 224 225 225 226 227 228 229 229 229 230 231 233 235 236 238 240 243 244 246 249 251 250 247 247 249 251 250 248 246 246 247 248 245 247 257 265 266 271 279 284 287 292 298 301 302 298 296 300 308 312 310 308 312 321 319 312 307 307 310
217 217 218 218 219 220 220 220 221 222 223 225 225 225 225 224 224 223 223 223 222 220 221 223 223 224 225 225 225 226 226 227 228 229 229 229 229 230 231 234 238 240 240 242 244 243 244 246 244 243 247 250 249 247 246 244 242 240 238 239 245 252 255 257 263 272 275 274 274 276 280 282 287 294 299 303 307 309 310 313 322 326 320 315 311 310
217 217 217 218 219 220 220 220 220 221 223 224 225 225 225 225 224 224 224 224 223 221 221 223 223 223 225 226 227 227 227 227 228 229 229 229 228 227 227 227 232 237 236 235 238 238 237 240 242 241 243 245 245 246 246 244 242 241 238 238 243 246 248 250 256 262 264 263 261 262 267 273 276 285 294 298 299 302 304 308 316 323 323 321 318 314
216 217 217 218 219 219 220 219 220 220 221 223 224 225 225 225 225 224 224 224 224 222 221 222 223 223 223 225 227 229 229 228 228 229 229 229 228 227 225 222 222 227 228 228 231 232 232 237 240 238 235 237 242 245 244 242 242 244 241 238 238 241 245 249 253 257 255 253 254 259 267 271 269 272 281 286 290 295 296 299 304 311 314 318 318 315
216 216 217 218 218 219 220 220 220 221 222 223 224 224 225 226 226 225 224 224 224 223 222 223 223 223 223 224 225 227 229 229 229 229 229 230 229 227 225 221 220 224 227 226 227 228 229 233 239 238 233 233 237 239 239 240 242 244 241 237 237 241 248 251 253 256 254 253 257 264 267 266 262 262 270 275 278 284 288 291 294 296 299 304 309 309
215 216 216 217 218 220 220 220 221 222 223 224 224 225 225 226 226 226 225 225 224 223 223 223 223 223 223 223 224 226 228 229 229 229 229 229 229 227 225 220 217 220 225 228 227 227 226 229 233 234 231 229 232 234 235 239 242 243 241 239 241 245 248 249 249 253 257 257 260 264 264 263 262 262 268 268 264 269 276 282 286 289 291 293 299 300
215 216 216 216 218 220 220 221 221 222 223 224 225 225 226 226 226 226 226 226 225 223 223 223 224 224 224 223 224 225 227 228 229 229 229 229 228 227 224 220 215 216 222 226 227 226 225 227 230 230 228 226 228 230 232 233 232 234 238 239 240 241 241 241 243 249 256 257 258 262 262 261 260 265 270 266 261 264 270 273 278 284 286 288 292 295
216 216 217 216 217 219 220 220 221 222 223 223 224 225 226 227 227 227 226 226 226 225 223 222 223 224 225 224 224 224 226 227 228 229 228 228 228 227 225 222 218 218 222 226 228 228 228 229 230 231 230 227 225 225 226 225 224 228 236 237 234 232 232 231 233 241 251 254 254 256 257 255 254 258 261 261 263 269 270 269 272 277 281 283 285 288
216 216 217 217 217 219 220 220 220 222 222 223 223 224 226 227 227 227 227 227 226 226 225 223 223 224 225 225 225 225 225 226 228 229 228 228 228 227 226 224 221 220 222 226 228 229 231 231 231 231 230 228 228 228 228 228 229 231 231 227 224 225 225 224 227 234 244 249 249 248 248 249 247 245 248 253 259 267 269 269 270 273 275 278 279 281
216 216 217 217 217 219 221 221 220 221 222 222 222 223 225 227 227 227 227 227 227 227 227 225 224 224 224 225 226 226 226 226 227 228 229 228 228 228 227 225 223 221 222 225 228 230 231 232 231 230 229 229 231 231 230 229 228 224 220 218 218 220 219 220 224 231 236 240 244 243 241 242 239 236 242 247 248 253 262 266 268 268 269 272 277 279
216 216 216 217 217 218 221 222 221 221 222 222 222 223 224 226 227 226 227 227 227 227 228 227 226 225 225 225 226 227 227 227 227 228 229 228 228 229 229 228 225 223 222 223 225 227 228 230 231 230 229 228 229 229 228 225 220 214 213 215 218 220 220 221 223 228 233 234 237 239 240 241 239 237 243 247 245 243 246 251 259 266 267 269 274 277
216 216 217 217 216 217 219 222 222 222 221 222 222 222 223 225 226 226 226 226 226 227 227 227 226 226 225 225 225 226 227 227 227 228 229 229 229 230 230 230 229 226 224 223 222 223 225 227 229 230 229 228 227 227 226 224 220 215 214 217 222 224 224 224 224 226 231 233 235 238 242 243 242 239 240 244 247 245 239 242 255 266 266 267 269 271
217 217 217 217 217 216 217 220 222 222 221 222 222 222 223 225 226 227 226 226 226 226 226 226 226 226 226 225 225 226 227 227 227 227 228 229 230 230 231 231 231 229 227 226 225 224 225 226 227 228 229 229 228 229 228 227 225 222 221 224 227 225 220 220 223 224 226 229 231 234 238 239 238 238 238 239 243 245 242 246 258 265 264 263 265 265
217 218 218 218 217 217 217 219 222 223 222 222 222 222 223 224 226 227 227 226 225 226 227 227 227 226 225 225 225 226 227 227 227 227 228 228 229 230 230 231 231 231 229 229 228 228 227 227 227 229 230 230 230 230 230 229 227 225 225 225 222 217 214 213 213 214 216 217 218 222 230 236 237 238 239 241 244 247 249 253 260 263 261 259 260 261
217 218 219 219 218 217 218 219 222 223 222 222 222 222 222 224 225 226 227 227 226 225 226 227 227 227 226 225 225 226 226 227 227 228 228 229 229 229 229 230 230 230 230 230 230 231 230 229 229 230 231 232 231 231 231 230 227 224 223 220 214 211 212 210 205 205 208 210 213 217 221 224 227 229 233 239 245 248 249 250 252 254 254 256 257 258
217 218 219 219 219 218 219 220 222 223 223 222 222 222 221 222 224 226 226 227 226 226 225 225 226 227 227 226 226 225 226 226 227 227 228 229 230 229 229 229 229 229 229 230 230 231 231 230 229 230 231 231 231 230 230 229 227 224 222 217 211 210 212 209 205 206 207 208 212 215 216 217 221 224 226 233 240 242 240 239 241 244 248 251 253 255
217 218 219 219 219 219 219 220 222 224 224 223 222 222 221 221 223 224 225 225 226 226 226 225 225 226 227 226 226 225 225 225 225 226 227 228 229 230 229 229 228 228 229 229 229 229 229 229 229 230 231 231 230 230 230 229 229 227 224 220 214 212 212 210 209 210 210 210 211 213 215 219 222 221 218 222 230 232 232 233 236 241 246 250 250 252
218 218 219 219 220 220 219 220 222 224 226 226 225 223 222 222 222 223 224 224 224 225 226 226 225 225 225 226 226 226 225 225 225 225 226 227 228 229 229 229 229 228 228 229 229 228 229 229 229 230 229 230 230 231 231 231 230 229 227 224 219 215 213 213 212 212 214 215 214 213 214 217 220 218 214 217 223 227 229 232 236 241 245 247 247 247
219 219 219 220 220 220 220 220 221 223 225 227 227 226 225 224 223 223 224 224 224 224 224 225 225 225 225 226 227 227 227 226 225 225 226 227 228 229 229 229 229 229 228 228 228 228 228 229 229 229 228 228 229 230 231 230 229 229 228 226 222 218 216 216 216 216 216 217 216 214 214 216 220 222 223 224 226 228 233 237 241 244 245 244 242 241
220 220 220 220 221 221 221 221 221 222 224 226 228 228 227 226 226 225 224 224 224 224 224 224 224 224 224 225 226 228 228 227 226 226 225 226 228 229 229 230 230 229 229 228 228 228 228 228 228 228 228 228 229 229 229 229 228 228 228 226 223 220 219 219 220 219 219 219 219 218 220 224 228 232 235 237 237 237 238 240 242 244 244 242 240 240
221 221 221 221 221 221 222 222 222 223 224 225 226 227 227 227 228 227 226 225 225 225 224 224 223 223 223 222 222 225 227 227 227 226 225 225 226 227 228 228 229 229 229 229 229 229 229 229 228 228 229 229 229 229 229 228 228 228 228 227 224 223 222 222 222 222 223 224 225 225 227 231 236 238 241 243 244 243 243 243 242 242 242 242 241 240
221 221 222 222 222 222 222 223 223 224 225 226 226 227 227 227 228 228 227 227 226 226 225 225 224 223 222 221 220 221 224 226 226 226 226 227 227 228 228 228 228 229 229 229 229 229 229 229 229 229 229 229 230 230 229 229 229 229 229 228 226 225 225 224 225 225 226 228 230 231 233 235 237 239 241 242 243 243 244 244 242 241 242 244 243 244
222 222 222 222 222 223 223 223 224 224 225 227 227 228 228 228 228 228 228 227 227 226 226 226 225 224 222 222 222 222 223 225 226 225 225 226 227 229 230 230 230 230 230 230 230 230 230 230 230 230 229 229 229 230 230 230 230 231 231 230 228 227 226 226 226 227 228 229 231 233 235 236 238 239 240 241 242 242 242 242 242 241 244 246 247 248
225 224 224 223 223 223 223 224 224 225 226 227 228 229 229 229 229 229 229 228 227 226 226 226 226 225 224 223 224 224 223 224 225 226 225 225 226 228 230 231 232 232 231 231 231 232 231 231 231 230 230 230 229 230 230 231 232 232 233 232 231 229 229 228 228 228 229 230 231 233 235 237 239 240 241 242 242 241 241 242 242 242 244 245 246 247
226 226 226 225 225 224 224 224 225 226 226 227 228 229 230 230 229 229 229 229 229 228 227 226 225 226 226 225 225 226 226 226 227 227 227 226 227 229 230 231 233 234 233 232 232 232 232 232 232 231 231 231 230 230 231 232 232 233 233 233 232 232 231 230 230 230 230 231 233 234 236 238 239 240 241 241 242 241 241 242 242 243 243 242 241 240
230 228 227 227 227 226 225 225 226 226 227 227 228 229 230 231 231 230 229 229 229 229 229 227 226 225 226 226 226 227 227 228 229 229 228 228 228 229 231 232 233 234 234 234 233 232 232 233 233 232 232 232 231 231 231 231 232 233 233 233 233 233 232 231 231 232 232 233 234 236 237 238 238 239 239 240 241 241 240 241 241 242 242 240 238 237
239 234 230 229 229 228 226 227 227 227 227 228 228 229 230 231 232 232 231 230 230 230 229 228 227 225 225 225 226 226 226 227 229 229 229 229 229 230 231 232 233 234 234 235 234 233 233 233 233 233 233 233 232 232 232 232 232 233 233 233 233 233 233 233 233 234 234 235 236 237 238 238 238 238 238 239 239 239 239 240 240 241 241 240 238 237
247 243 238 234 232 230 228 228 227 227 227 228 229 230 230 231 231 232 232 232 231 231 230 229 228 226 225 225 225 226 226 227 228 229 230 230 230 231 231 232 233 234 234 235 235 234 234 233 233 233 234 234 233 233 233 232 232 232 233 233 234 234 234 235 235 236 236 236 237 238 238 238 238 238 238 238 238 238 239 239 241 241 241 241 239 237
249 248 245 241 237 233 231 229 229 228 227 227 229 230 231 231 232 232 233 233 232 232 231 231 229 228 226 226 225 226 227 228 229 230 231 231 231 232 232 232 233 233 234 234 235 235 235 234 234 234 234 234 234 234 233 233 233 232 232 233 234 234 235 236 236 237 237 238 238 238 238 238 238 239 239 239 239 239 239 240 241 242 242 241 240 239
247 247 247 245 242 238 234 232 231 230 228 227 228 229 230 231 232 232 233 233 233 233 233 232 231 229 228 227 227 227 228 228 229 230 231 231 231 231 232 232 232 233 234 234 235 235 235 235 235 234 234 234 234 234 234 234 234 233 233 233 233 234 235 236 236 237 238 238 238 238 238 238 239 240 240 240 240 240 240 240 241 242 242 242 241 241
Height
10892 10899 10905 10907 10907 10910 10912 10915 10922 10933 10941 10946 10950 10956 10960 10964 10968 10972 10976 10982 10987 10992 10996 10999 11000 11002 11006 11009 11011 11012 11013 11014 11016 11017 11017 11019 11021 11022 11023 11025 11026 11027 11027 11027 11028 11028 11027 11028 11028 11028 11027 11026 11025 11024 11024 11023 11022 11021 11020 11019 11018 11016 11015 11013 11012 11011 11010 11009 11007 11006 11005 11005 11004 11004 11003 11003 11001 11000 10999 10998 10996 10995 10994 10993 10992 10991
10887 10893 10895 10895 10898 10902 10906 10911 10920 10929 10935 10941 10946 10950 10956 10960 10963 10967 10972 10977 10982 10988 10993 10996 10998 10999 11003 11007 11010 11012 11013 11013 11014 11016 11016 11018 11019 11020 11022 11024 11025 11026 11026 11026 11027 11028 11028 11028 11028 11028 11028 11026 11025 11025 11024 11024 11023 11022 11021 11020 11019 11018 11016 11015 11014 11013 11012 11011 11009 11008 11007 11007 11006 11006 11005 11005 11004 11003 11001 11000 10999 10998 10997 10996 10994 10994
10881 10884 10884 10886 10891 10897 10901 10907 10916 10924 10930 10936 10941 10946 10950 10954 10958 10963 10967 10973 10978 10984 10988 10991 10993 10995 10999 11003 11007 11009 11011 11012 11012 11014 11015 11015 11017 11019 11020 11022 11024 11025 11026 11026 11026 11027 11027 11027 11028 11028 11028 11027 11026 11025 11024 11024 11023 11023 11022 11021 11020 11019 11018 11017 11015 11015 11014 11013 11011 11010 11009 11009 11008 11008 11007 11006 11006 11005 11004 11003 11002 11000 10999 10998 10997 10997
10872 10871 10871 10877 10885 10891 10895 10901 10910 10919 10925 10931 10936 10940 10943 10947 10952 10957 10963 10969 10974 10978 10981 10984 10987 10991 10994 10998 11002 11005 11007 11009 11009 11011 11013 11013 11015 11017 11018 11020 11022 11024 11025 11025 11026 11026 11027 11027 11028 11028 11029 11028 11027 11026 11025 11024 11024 11023 11023 11022 11021 11020 11019 11018 11017 11016 11015 11015 11014 11013 11012 11011 11010 11010 11009 11008 11007 11007 11006 11005 11004 11003 11002 11001 11000 10999
10859 10859 10863 10873 10880 10885 10889 10895 10905 10913 10918 10923 10929 10932 10935 10939 10946 10953 10959 10965 10970 10972 10975 10979 10983 10987 10991 10993 10997 10999 11003 11005 11005 11007 11010 11011 11013 11015 11016 11018 11020 11022 11024 11025 11025 11026 11027 11027 11028 11028 11029 11028 11027 11027 11026 11025 11024 11023 11023 11022 11021 11021 11020 11019 11018 11017 11017 11016 11016 11015 11014 11013 11012 11011 11010 11009 11009 11008 11008 11007 11006 11005 11004 11003 11002 11001
10847 10851 10860 10869 10875 10879 10883 10889 10898 10906 10910 10916 10921 10924 10927 10933 10941 10949 10953 10958 10962 10964 10969 10976 10979 10983 10987 10990 10993 10995 10998 11002 11002 11003 11006 11009 11011 11012 11014 11017 11019 11020 11022 11024 11025 11025 11026 11027 11027 11028 11028 11028 11027 11027 11027 11026 11025 11024 11024 11023 11022 11022 11021 11020 11019 11018 11018 11017 11017 11016 11015 11014 11013 11012 11012 11011 11011 11010 11009 11008 11008 11007 11006 11005 11004 11003
10838 10846 10855 10862 10867 10872 10876 10882 10891 10899 10904 10910 10913 10916 10920 10927 10936 10942 10945 10950 10953 10957 10965 10972 10976 10980 10983 10986 10989 10991 10994 10998 10999 11001 11004 11006 11008 11010 11013 11016 11018 11019 11020 11023 11024 11024 11025 11026 11026 11027 11028 11028 11028 11028 11028 11027 11026 11025 11025 11024 11023 11023 11022 11021 11020 11020 11019 11018 11018 11018 11017 11016 11015 11014 11014 11013 11013 11012 11012 11011 11010 11009 11008 11007 11006 11006
10832 10841 10848 10854 10860 10866 10870 10875 10883 10892 10899 10902 10903 10908 10915 10922 10929 10933 10937 10943 10948 10955 10962 10966 10970 10975 10979 10982 10985 10988 10990 10993 10996 10999 11001 11002 11005 11008 11011 11014 11016 11017 11018 11021 11023 11024 11024 11024 11025 11026 11027 11028 11028 11029 11028 11027 11027 11026 11025 11025 11024 11024 11023 11023 11022 11021 11020 11020 11020 11020 11019 11018 11017 11016 11016 11015 11015 11014 11014 11013 11012 11011 11010 11010 11009 11008
10825 10833 10838 10845 10852 10859 10863 10865 10872 10884 10890 10889 10891 10901 10909 10915 10921 10925 10930 10938 10944 10952 10957 10960 10965 10969 10973 10977 10980 10984 10987 10989 10992 10995 10998 11000 11003 11006 11008 11011 11014 11015 11017 11020 11022 11022 11023 11023 11024 11025 11026 11028 11028 11029 11028 11028 11027 11026 11026 11025 11025 11025 11024 11023 11023 11022 11021 11021 11021 11021 11020 11020 11019 11018 11017 11017 11016 11016 11015 11015 11014 11013 11012 11012 11011 11011
10818 10824 10830 10839 10847 10852 10853 10854 10863 10875 10877 10876 10885 10897 10903 10908 10914 10917 10925 10934 10940 10947 10952 10955 10960 10964 10968 10972 10976 10980 10984 10986 10989 10992 10995 10998 11001 11004 11006 11008 11011 11014 11015 11018 11020 11021 11021 11022 11023 11024 11026 11027 11028 11028 11028 11027 11027 11026 11026 11026 11025 11025 11025 11024 11023 11022 11022 11021 11021 11021 11021 11021 11020 11019 11019 11018 11017 11017 11017 11016 11016 11015 11014 11013 11013 11012
10810 10815 10824 10834 10841 10844 10844 10847 10857 10864 10864 10869 10881 10891 10895 10902 10907 10911 10920 10929 10935 10942 10946 10950 10955 10960 10964 10968 10972 10976 10979 10982 10986 10989 10992 10995 10998 11001 11003 11005 11008 11011 11014 11016 11018 11020 11021 11021 11022 11024 11025 11026 11027 11027 11027 11027 11027 11026 11026 11026 11026 11025 11025 11024 11023 11023 11022 11021 11021 11021 11021 11021 11021 11020 11019 11019 11018 11018 11018 11018 11017 11017 11016 11015 11014 11014
10801 10808 10818 10825 10829 10832 10837 10843 10850 10853 10858 10868 10878 10884 10890 10897 10902 10907 10916 10925 10931 10935 10939 10944 10949 10954 10958 10963 10968 10971 10975 10979 10982 10986 10989 10992 10995 10998 11000 11002 11004 11008 11012 11014 11017 11018 11019 11020 11021 11023 11024 11025 11026 11026 11026 11026 11026 11026 11026 11026 11026 11025 11025 11025 11024 11023 11022 11022 11021 11021 11021 11021 11020 11020 11020 11019 11019 11018 11018 11018 11018 11018 11017 11016 11016 11015
10796 10804 10812 10816 10820 10825 10831 10836 10841 10846 10856 10867 10873 10879 10887 10893 10898 10904 10912 10921 10924 10926 10931 10938 10944 10948 10953 10958 10964 10967 10971 10975 10978 10982 10985 10988 10991 10994 10997 10999 11001 11005 11008 11011 11014 11016 11017 11019 11020 11021 11022 11023 11025 11025 11025 11026 11026 11026 11026 11026 11026 11025 11025 11025 11024 11023 11022 11022 11021 11021 11021 11020 11020 11020 11019 11019 11019 11018 11018 11018 11018 11018 11018 11017 11017 11016
10792 10798 10804 10807 10813 10820 10826 10831 10835 10840 10851 10861 10866 10874 10884 10890 10896 10901 10907 10914 10916 10918 10925 10932 10938 10943 10947 10953 10958 10962 10966 10970 10972 10976 10980 10984 10987 10990 10993 10996 10998 11002 11005 11007 11011 11013 11015 11017 11018 11019 11021 11022 11023 11023 11024 11025 11025 11026 11026 11025 11025 11025 11025 11024 11024 11023 11022 11022 11022 11021 11021 11020 11020 11020 11020 11019 11019 11019 11018 11018 11018 11018 11018 11018 11018 11017
10786 10790 10796 10802 10810 10817 10822 10826 10828 10833 10843 10850 10855 10865 10876 10885 10891 10894 10899 10905 10907 10911 10918 10925 10933 10937 10940 10945 10951 10956 10960 10964 10967 10971 10975 10979 10983 10986 10990 10993 10996 10998 11001 11005 11008 11010 11012 11014 11016 11018 11019 11020 11020 11021 11023 11024 11025 11025 11025 11025 11025 11024 11024 11024 11023 11023 11022 11022 11022 11021 11021 11021 11021 11020 11020 11020 11020 11019 11019 11019 11018 11018 11018 11018 11018 11018
10777 10784 10792 10800 10806 10812 10815 10817 10820 10824 10832 10839 10846 10857 10868 10877 10882 10885 10890 10894 10897 10902 10910 10921 10927 10929 10932 10938 10945 10950 10955 10958 10962 10968 10972 10975 10979 10983 10987 10990 10993 10995 10998 11002 11005 11008 11009 11011 11013 11015 11017 11018 11019 11020 11021 11022 11023 11023 11023 11023 11023 11023 11023 11023 11023 11023 11022 11022 11022 11021 11021 11022 11021 11021 11021 11021 11021 11020 11020 11019 11019 11019 11019 11019 11019 11019
10770 10778 10786 10792 10797 10802 10805 10810 10815 10817 10823 10833 10841 10850 10860 10868 10873 10876 10880 10884 10889 10896 10906 10916 10920 10922 10926 10934 10940 10945 10949 10953 10958 10963 10968 10972 10976 10980 10984 10987 10989 10992 10995 10998 11001 11004 11005 11007 11010 11013 11015 11016 11017 11018 11018 11019 11020 11021 11021 11021 11022 11022 11022 11022 11022 11023 11023 11022 11021 11021 11021 11022 11022 11022 11021 11021 11022 11021 11021 11020 11020 11020 11020 11020 11020 11020
10762 10769 10776 10782 10788 10794 10800 10807 10810 10811 10817 10826 10833 10841 10850 10858 10863 10867 10870 10876 10884 10893 10901 10909 10913 10916 10921 10927 10934 10940 10944 10948 10953 10958 10963 10969 10973 10977 10980 10983 10986 10988 10991 10994 10997 11001 11003 11005 11007 11009 11011 11012 11012 11013 11015 11016 11018 11019 11020 11020 11021 11022 11022 11021 11022 11023 11023 11022 11021 11021 11021 11021 11021 11021 11022 11022 11022 11022 11022 11022 11021 11021 11021 11021 11021 11021
10752 10759 10767 10773 10779 10787 10794 10799 10801 10804 10811 10818 10825 10832 10840 10848 10854 10857 10861 10869 10881 10890 10896 10901 10905 10908 10913 10921 10928 10934 10939 10943 10947 10952 10957 10961 10966 10971 10975 10979 10982 10985 10988 10992 10996 10999 11000 11000 11001 11004 11006 11006 11007 11010 11013 11015 11016 11018 11019 11020 11021 11021 11020 11020 11021 11021 11022 11022 11021 11021 11020 11020 11020 11021 11021 11021 11022 11022 11022 11022 11022 11022 11022 11021 11021 11021
10742 10750 10758 10765 10770 10778 10784 10787 10791 10797 10802 10807 10815 10824 10832 10840 10846 10848 10854 10863 10875 10884 10888 10892 10897 10902 10907 10915 10922 10928 10932 10937 10942 10946 10950 10954 10960 10965 10970 10975 10979 10983 10987 10991 10994 10995 10993 10992 10996 11001 11002 11002 11004 11008 11011 11013 11014 11015 11017 11018 11020 11020 11019 11018 11019 11020 11021 11021 11021 11020 11020 11020 11020 11020 11020 11020 11021 11022 11022 11022 11022 11022 11022 11022 11022 11021
10733 10742 10750 10756 10762 10769 10773 10778 10784 10790 10793 10797 10805 10814 10822 10829 10835 10841 10848 10856 10867 10877 10880 10884 10890 10895 10901 10908 10915 10920 10925 10930 10935 10939 10944 10950 10956 10961 10967 10972 10976 10981 10984 10987 10989 10991 10990 10992 10997 10999 10997 10996 11000 11004 11007 11009 11010 11011 11014 11016 11017 11018 11017 11017 11018 11019 11020 11020 11020 11019 11019 11020 11020 11020 11020 11020 11020 11021 11021 11021 11022 11022 11022 11022 11022 11021
10725 10733 10741 10748 10754 10760 10764 10771 10779 10784 10785 10788 10795 10802 10808 10815 10823 10833 10840 10848 10862 10872 10875 10879 10885 10889 10894 10901 10908 10912 10917 10923 10927 10932 10939 10945 10952 10958 10965 10970 10974 10978 10981 10984 10988 10992 10993 10993 10993 10991 10989 10992 10997 11000 11001 11003 11005 11007 11010 11013 11014 11015 11016 11016 11016 11017 11018 11018 11019 11018 11019 11019 11019 11020 11019 11019 11019 11020 11020 11021 11021 11021 11022 11022 11022 11021
10716 10725 10732 10740 10746 10750 10756 10764 10771 10774 10775 10777 10782 10788 10796 10805 10816 10825 10833 10844 10857 10866 10869 10874 10879 10885 10891 10896 10900 10905 10911 10917 10921 10926 10932 10939 10947 10953 10959 10966 10971 10974 10978 10980 10983 10988 10990 10986 10984 10985 10987 10991 10994 10993 10994 10997 11002 11005 11008 11010 11012 11013 11014 11014 11014 11015 11016 11016 11017 11017 11017 11018 11018 11019 11019 11019 11019 11019 11019 11020 11020 11021 11021 11021 11021 11021
10708 10716 10724 10731 10736 10740 10748 10756 10760 10761 10763 10766 10771 10778 10788 10799 10810 10820 10829 10840 10850 10857 10863 10868 10874 10883 10889 10891 10895 10899 10905 10911 10914 10919 10925 10932 10939 10944 10949 10959 10965 10967 10971 10971 10971 10978 10980 10975 10975 10981 10985 10987 10987 10987 10990 10995 11000 11003 11005 11008 11010 11011 11012 11011 11012 11013 11014 11014 11015 11015 11016 11016 11017 11017 11017 11017 11018 11018 11019 11019 11019 11020 11020 11021 11021 11021
10700 10707 10714 10721 10725 10730 10737 10743 10747 10749 10751 10755 10762 10772 10783 10793 10802 10812 10821 10830 10839 10848 10856 10862 10869 10877 10882 10884 10889 10894 10898 10903 10907 10913 10919 10925 10931 10936 10943 10952 10955 10955 10959 10963 10964 10971 10973 10967 10965 10972 10979 10980 10980 10982 10987 10992 10996 10999 11002 11005 11006 11007 11008 11008 11010 11011 11012 11012 11013 11013 11014 11014 11014 11015 11015 11015 11016 11017 11018 11018 11018 11018 11019 11019 11020 11021
10691 10697 10705 10711 10715 10720 10725 10731 10736 10739 10742 10749 10758 10767 10777 10785 10794 10803 10812 10821 10830 10840 10850 10857 10862 10869 10874 10878 10884 10888 10889 10894 10901 10907 10913 10919 10924 10930 10937 10943 10945 10946 10951 10956 10959 10964 10965 10961 10957 10962 10972 10976 10975 10977 10982 10987 10992 10995 10998 11001 11002 11003 11004 11006 11007 11008 11009 11010 11011 11012 11012 11011 11011 11012 11012 11013 11013 11015 11016 11016 11017 11017 11017 11018 11018 11019
10682 10688 10695 10701 10707 10712 10717 10723 10729 10733 10740 10747 10755 10763 10770 10777 10787 10796 10805 10814 10823 10832 10842 10848 10853 10860 10866 10871 10877 10879 10881 10886 10894 10900 10905 10910 10916 10922 10928 10935 10939 10940 10943 10948 10952 10954 10956 10954 10950 10954 10963 10969 10970 10973 10979 10984 10989 10992 10992 10994 10997 10999 11001 11003 11004 11006 11007 11007 11008 11008 11008 11008 11008 11008 11009 11010 11011 11012 11013 11014 11015 11015 11015 11016 11017 11018
10675 10680 10685 10693 10699 10703 10708 10715 10722 10728 10736 10744 10751 10759 10765 10770 10779 10788 10797 10806 10815 10823 10831 10839 10846 10852 10857 10862 10867 10871 10874 10880 10886 10891 10896 10902 10907 10913 10920 10926 10930 10931 10933 10938 10943 10946 10947 10947 10945 10948 10956 10962 10966 10970 10976 10981 10984 10983 10982 10986 10991 10995 10998 11000 11003 11004 11004 11003 11004 11006 11005 11005 11005 11005 11005 11006 11007 11008 11010 11011 11012 11013 11014 11014 11015 11016
10668 10673 10678 10685 10691 10693 10698 10707 10714 10720 10728 10737 10745 10752 10757 10763 10772 10781 10790 10798 10805 10813 10821 10829 10838 10843 10848 10854 10859 10863 10869 10874 10878 10883 10888 10894 10899 10904 10911 10916 10921 10923 10925 10929 10935 10938 10940 10940 10941 10945 10950 10956 10961 10966 10971 10974 10976 10975 10977 10982 10989 10992 10995 10998 11001 11002 11000 10999 11002 11004 11003 11001 11002 11002 11002 11002 11002 11004 11006 11008 11009 11011 11012 11012 11013 11014
10660 10666 10671 10678 10683 10684 10690 10699 10706 10712 10721 10730 10738 10745 10748 10754 10764 10774 10781 10788 10796 10804 10812 10821 10829 10835 10840 10846 10852 10858 10864 10869 10871 10874 10879 10885 10890 10895 10900 10905 10910 10915 10918 10922 10926 10931 10933 10935 10936 10939 10944 10949 10954 10959 10964 10968 10970 10973 10977 10981 10985 10988 10991 10994 10996 10997 10996 10994 10997 11000 10999 10997 10998 11000 11000 11000 10999 11000 11002 11004 11006 11008 11010 11010 11011 11012
10653 10657 10663 10670 10676 10680 10685 10692 10698 10705 10712 10721 10729 10736 10739 10745 10755 10764 10771 10780 10789 10796 10804 10813 10821 10827 10834 10840 10846 10852 10857 10860 10862 10865 10870 10877 10881 10885 10889 10894 10901 10907 10911 10915 10919 10924 10927 10929 10930 10933 10937 10943 10948 10952 10957 10962 10966 10971 10975 10977 10978 10981 10985 10988 10991 10992 10991 10990 10992 10995 10994 10994 10996 10997 10997 10998 10998 10998 10998 11000 11002 11005 11007 11008 11009 11009
10645 10650 10655 10661 10668 10674 10679 10684 10691 10698 10704 10712 10721 10727 10731 10736 10745 10754 10762 10772 10781 10788 10796 10805 10813 10820 10827 10833 10837 10842 10846 10849 10853 10858 10863 10868 10873 10876 10880 10885 10893 10900 10904 10909 10913 10917 10920 10921 10923 10926 10930 10935 10940 10945 10950 10956 10962 10968 10971 10971 10971 10975 10980 10984 10987 10988 10988 10987 10990 10991 10991 10991 10993 10994 10994 10995 10996 10996 10995 10996 10999 11001 11003 11005 11007 11007
10638 10643 10648 10654 10661 10667 10672 10678 10684 10690 10697 10703 10709 10717 10722 10727 10734 10743 10752 10762 10770 10778 10786 10795 10803 10811 10818 10824 10828 10831 10834 10837 10843 10851 10856 10860 10864 10869 10872 10877 10885 10892 10897 10902 10906 10909 10911 10913 10916 10919 10923 10927 10932 10936 10942 10949 10955 10960 10963 10962 10963 10970 10975 10978 10981 10984 10985 10985 10986 10988 10988 10988 10989 10991 10992 10993 10993 10994 10994 10993 10996 10999 11001 11002 11003 11003
10632 10636 10641 10647 10653 10659 10666 10671 10672 10678 10686 10692 10699 10709 10717 10721 10726 10733 10742 10752 10760 10767 10774 10783 10792 10801 10809 10815 10819 10820 10822 10826 10834 10843 10848 10851 10854 10860 10864 10869 10876 10883 10889 10893 10897 10900 10902 10905 10908 10911 10915 10919 10923 10927 10933 10940 10946 10951 10953 10955 10959 10965 10968 10971 10974 10977 10979 10980 10982 10984 10984 10984 10985 10987 10988 10989 10990 10992 10993 10993 10994 10995 10996 10997 10997 10998
10626 10631 10635 10641 10647 10653 10659 10661 10661 10667 10677 10686 10694 10704 10711 10714 10718 10723 10732 10743 10752 10759 10767 10775 10783 10790 10798 10803 10806 10808 10811 10817 10826 10833 10836 10838 10843 10849 10855 10861 10866 10873 10879 10882 10886 10889 10892 10895 10898 10902 10906 10911 10915 10919 10924 10931 10937 10941 10944 10949 10955 10958 10960 10964 10967 10969 10971 10973 10975 10977 10979 10979 10981 10983 10984 10986 10988 10989 10992 10992 10990 10990 10990 10991 10991 10991
10619 10624 10629 10634 10640 10646 10651 10654 10655 10660 10669 10678 10686 10693 10700 10705 10709 10715 10724 10733 10741 10750 10758 10764 10770 10778 10785 10790 10793 10797 10803 10809 10817 10823 10826 10827 10832 10837 10843 10849 10854 10860 10865 10869 10873 10877 10881 10885 10888 10892 10897 10902 10906 10911 10916 10922 10928 10932 10937 10942 10948 10951 10952 10956 10959 10961 10962 10963 10964 10966 10969 10971 10973 10975 10978 10981 10983 10985 10987 10986 10983 10982 10982 10984 10984 10984
10612 10617 10622 10627 10633 10639 10644 10647 10650 10653 10659 10667 10674 10680 10688 10695 10701 10706 10714 10722 10730 10739 10746 10752 10759 10767 10774 10778 10782 10787 10794 10800 10806 10812 10816 10818 10822 10826 10831 10836 10842 10847 10851 10856 10860 10865 10868 10873 10877 10882 10888 10894 10898 10902 10906 10912 10919 10924 10929 10934 10939 10943 10944 10948 10951 10950 10948 10950 10952 10955 10958 10961 10964 10967 10971 10974 10975 10976 10977 10976 10975 10975 10976 10977 10978 10979
10606 10611 10615 10619 10625 10632 10637 10642 10645 10648 10652 10658 10664 10670 10678 10686 10691 10696 10702 10711 10721 10729 10736 10744 10751 10757 10762 10766 10770 10776 10782 10788 10794 10800 10804 10805 10808 10813 10818 10823 10828 10833 10837 10842 10848 10852 10856 10861 10866 10872 10879 10885 10890 10894 10897 10903 10908 10914 10920 10925 10930 10934 10937 10940 10941 10938 10936 10939 10944 10947 10950 10954 10957 10960 10963 10965 10967 10968 10969 10969 10969 10970 10972 10973 10974 10975
10600 10604 10608 10613 10618 10624 10630 10635 10640 10643 10646 10651 10656 10663 10670 10676 10680 10684 10691 10701 10711 10718 10725 10733 10740 10745 10748 10753 10759 10765 10771 10777 10782 10786 10789 10791 10793 10798 10803 10808 10814 10819 10823 10828 10834 10839 10844 10850 10856 10862 10869 10876 10881 10885 10889 10894 10899 10904 10910 10915 10920 10925 10928 10930 10932 10931 10931 10934 10938 10941 10944 10947 10950 10952 10954 10956 10959 10961 10962 10963 10964 10966 10967 10969 10971 10973
10595 10599 10603 10607 10612 10617 10622 10628 10633 10636 10640 10644 10649 10656 10662 10666 10669 10675 10683 10691 10700 10707 10713 10720 10728 10733 10739 10745 10752 10757 10761 10767 10771 10774 10777 10780 10782 10786 10790 10795 10800 10805 10809 10814 10820 10825 10831 10838 10844 10851 10858 10865 10871 10876 10881 10886 10890 10895 10900 10905 10910 10915 10918 10921 10923 10924 10925 10928 10931 10934 10936 10940 10943 10945 10947 10949 10952 10954 10956 10957 10958 10960 10961 10963 10966 10967
10590 10593 10596 10600 10605 10610 10615 10620 10624 10628 10632 10635 10640 10646 10653 10658 10663 10669 10675 10682 10689 10696 10703 10710 10717 10724 10732 10740 10745 10746 10748 10753 10757 10761 10766 10770 10773 10776 10780 10783 10786 10790 10794 10799 10804 10811 10818 10825 10833 10840 10847 10854 10861 10868 10873 10878 10883 10887 10891 10896 10901 10905 10909 10912 10914 10916 10917 10919 10922 10925 10928 10931 10934 10937 10940 10942 10944 10946 10949 10951 10953 10954 10955 10956 10958 10960
10585 10588 10591 10594 10598 10603 10607 10612 10617 10620 10623 10626 10630 10636 10643 10650 10655 10660 10666 10674 10681 10686 10692 10700 10707 10714 10722 10727 10729 10730 10731 10737 10742 10746 10751 10756 10758 10759 10763 10766 10769 10774 10779 10785 10792 10799 10807 10815 10824 10832 10839 10846 10853 10860 10866 10871 10876 10880 10884 10888 10892 10896 10900 10903 10905 10907 10908 10910 10913 10917 10920 10923 10926 10929 10932 10934 10936 10938 10941 10943 10946 10947 10948 10950 10952 10953
10581 10584 10586 10589 10592 10595 10599 10604 10609 10612 10614 10618 10622 10627 10634 10640 10644 10649 10657 10666 10672 10677 10682 10689 10696 10703 10709 10711 10714 10716 10718 10722 10727 10733 10739 10744 10746 10745 10745 10747 10751 10758 10765 10772 10781 10790 10799 10807 10815 10823 10830 10837 10843 10850 10856 10862 10867 10872 10876 10880 10883 10887 10890 10893 10895 10897 10899 10901 10904 10908 10911 10915 10918 10921 10924 10926 10929 10931 10932 10935 10938 10940 10942 10944 10946 10948
10577 10579 10581 10583 10586 10589 10592 10596 10600 10603 10607 10610 10614 10619 10625 10630 10635 10641 10648 10654 10660 10666 10672 10679 10685 10691 10696 10699 10702 10706 10709 10711 10714 10719 10724 10730 10733 10733 10733 10734 10738 10745 10754 10764 10773 10782 10790 10797 10803 10811 10818 10826 10832 10838 10844 10850 10855 10860 10865 10869 10872 10876 10879 10882 10884 10887 10890 10893 10896 10899 10903 10906 10910 10913 10916 10919 10921 10923 10924 10927 10930 10932 10934 10937 10939 10942
10573 10574 10575 10578 10580 10583 10585 10588 10591 10594 10598 10602 10605 10610 10616 10621 10627 10633 10638 10642 10648 10654 10661 10668 10674 10680 10685 10690 10693 10697 10700 10702 10704 10708 10712 10716 10719 10721 10723 10725 10728 10736 10748 10759 10767 10773 10779 10785 10792 10799 10806 10814 10821 10826 10831 10836 10841 10846 10851 10856 10860 10864 10868 10871 10874 10877 10880 10884 10887 10891 10894 10898 10901 10904 10907 10910 10913 10915 10916 10918 10921 10924 10927 10930 10933 10935
10567 10568 10570 10573 10575 10577 10579 10581 10583 10586 10590 10594 10597 10601 10605 10610 10617 10623 10628 10633 10637 10643 10649 10656 10664 10670 10676 10681 10686 10690 10692 10693 10695 10698 10702 10705 10708 10710 10714 10718 10722 10728 10738 10749 10756 10761 10766 10773 10779 10787 10794 10801 10808 10814 10819 10824 10828 10833 10838 10843 10848 10852 10857 10861 10864 10868 10872 10876 10879 10882 10885 10889 10892 10894 10897 10900 10903 10905 10908 10910 10912 10915 10918 10922 10925 10927
10561 10563 10565 10567 10568 10571 10573 10575 10576 10579 10582 10585 10589 10592 10595 10599 10605 10611 10617 10622 10626 10631 10637 10645 10653 10661 10667 10672 10677 10680 10682 10685 10687 10689 10691 10694 10697 10701 10705 10711 10716 10720 10725 10733 10742 10749 10755 10760 10767 10774 10781 10789 10796 10802 10808 10812 10817 10822 10827 10832 10837 10842 10846 10851 10855 10858 10862 10866 10869 10872 10874 10877 10881 10884 10886 10889 10892 10895 10898 10901 10903 10906 10909 10912 10916 10918
10556 10557 10559 10560 10561 10563 10566 10567 10569 10572 10574 10576 10579 10581 10584 10588 10593 10599 10605 10611 10615 10620 10625 10631 10641 10649 10656 10660 10663 10664 10667 10671 10672 10673 10676 10681 10686 10691 10695 10700 10704 10708 10713 10718 10726 10734 10742 10748 10755 10762 10770 10777 10784 10790 10795 10800 10805 10811 10815 10820 10825 10830 10835 10839 10843 10846 10850 10854 10857 10860 10862 10865 10869 10873 10876 10879 10882 10885 10888 10891 10894 10897 10899 10902 10906 10908
10551 10552 10553 10554 10554 10556 10557 10559 10561 10563 10566 10567 10569 10571 10573 10576 10581 10586 10591 10597 10603 10608 10613 10619 10626 10634 10640 10645 10648 10650 10653 10655 10655 10657 10663 10670 10675 10680 10684 10688 10691 10696 10700 10704 10710 10717 10727 10736 10744 10751 10758 10764 10771 10776 10781 10786 10792 10798 10803 10807 10812 10817 10821 10826 10829 10833 10837 10841 10845 10848 10851 10855 10859 10863 10866 10870 10873 10876 10879 10882 10884 10887 10889 10892 10895 10897
10545 10545 10545 10546 10547 10548 10549 10551 10552 10554 10556 10557 10559 10560 10562 10565 10569 10573 10577 10582 10588 10593 10599 10606 10612 10619 10624 10630 10634 10637 10640 10642 10644 10648 10653 10660 10665 10669 10672 10676 10679 10682 10685 10689 10695 10703 10713 10723 10731 10738 10745 10751 10756 10761 10766 10772 10778 10784 10789 10794 10799 10804 10807 10812 10816 10820 10824 10828 10832 10836 10840 10844 10848 10852 10856 10860 10863 10866 10869 10872 10874 10876 10878 10881 10884 10886
10538 10538 10537 10537 10538 10539 10540 10542 10543 10544 10546 10548 10549 10550 10551 10553 10556 10560 10563 10568 10573 10579 10585 10592 10598 10604 10610 10616 10621 10625 10627 10630 10634 10638 10642 10647 10651 10655 10658 10662 10666 10669 10673 10678 10684 10692 10700 10708 10715 10722 10730 10736 10741 10747 10752 10758 10765 10770 10776 10781 10785 10790 10794 10798 10802 10807 10811 10816 10820 10824 10828 10832 10836 10840 10844 10848 10852 10855 10858 10861 10862 10864 10866 10869 10872 10875